TimeCEST,TemperatureF,Dew PointF,Humidity,Sea Level PressureIn,VisibilityMPH,Wind Direction,Wind SpeedMPH,Gust SpeedMPH,PrecipitationIn,Events,Conditions,WindDirDegrees,DateUTC
12:00 AM,66.2,64.4,94,29.95,6.2,Variable,3.5,-,N/A,,Scattered Clouds,0,2012-10-07 22:00:00
12:30 AM,64.4,60.8,88,29.98,6.2,East,15.0,-,N/A,,Scattered Clouds,80,2012-10-07 22:30:00
1:00 AM,62.6,59.0,88,29.98,6.2,East,16.1,-,N/A,,Scattered Clouds,80,2012-10-07 23:00:00
1:30 AM,62.6,57.2,82,30.01,6.2,East,15.0,-,N/A,,Partly Cloudy,80,2012-10-07 23:30:00
2:00 AM,62,55,71,30.01,16,East,15.7,,,,Scattered Clouds,80,2012-10-08 00:00:00
2:00 AM,62.6,55.4,77,30.01,6.2,East,16.1,-,N/A,,Partly Cloudy,80,2012-10-08 00:00:00
2:30 AM,62.6,53.6,72,30.01,6.2,ENE,15.0,-,N/A,,Partly Cloudy,70,2012-10-08 00:30:00
3:00 AM,62.6,53.6,72,30.01,-9999.0,ENE,16.1,-,N/A,,Clear,70,2012-10-08 01:00:00
3:30 AM,60.8,51.8,72,30.01,-9999.0,East,20.7,-,N/A,,Clear,80,2012-10-08 01:30:00
4:00 AM,59.0,51.8,77,30.01,-9999.0,ENE,18.4,-,N/A,,Clear,70,2012-10-08 02:00:00
4:30 AM,59.0,48.2,67,30.01,-9999.0,ENE,23.0,-,N/A,,Clear,70,2012-10-08 02:30:00
5:00 AM,59,46,53,30.04,19,ENE,22.4,,,,Scattered Clouds,70,2012-10-08 03:00:00
5:00 AM,59.0,46.4,63,30.04,6.2,ENE,23.0,-,N/A,,Partly Cloudy,70,2012-10-08 03:00:00
5:30 AM,57.2,44.6,63,30.01,6.2,ENE,23.0,34.5,N/A,,Partly Cloudy,70,2012-10-08 03:30:00
6:00 AM,58,44,48,30.04,19,ENE,24.6,,,,,70,2012-10-08 04:00:00
6:00 AM,57.2,42.8,59,30.04,-9999.0,ENE,24.2,-,N/A,,Clear,70,2012-10-08 04:00:00
6:30 AM,57.2,41.0,55,30.04,-9999.0,ENE,24.2,-,N/A,,Clear,70,2012-10-08 04:30:00
7:00 AM,57,41,43,30.05,19,ENE,24.6,,,,Scattered Clouds,70,2012-10-08 05:00:00
7:00 AM,57.2,41.0,55,30.04,-9999.0,ENE,24.2,35.7,N/A,,Clear,70,2012-10-08 05:00:00
7:30 AM,57.2,41.0,55,30.04,-9999.0,ENE,17.3,-,N/A,,Clear,70,2012-10-08 05:30:00
8:00 AM,58,41,41,30.06,25,East,20.1,,,,Scattered Clouds,80,2012-10-08 06:00:00
8:00 AM,57.2,41.0,55,30.04,-9999.0,East,20.7,-,N/A,,Clear,80,2012-10-08 06:00:00
8:30 AM,59.0,41.0,51,30.06,-9999.0,ENE,20.7,-,N/A,,Clear,70,2012-10-08 06:30:00
9:00 AM,59.0,39.2,48,30.06,-9999.0,ENE,21.9,-,N/A,,Clear,70,2012-10-08 07:00:00
9:30 AM,60.8,39.2,45,30.09,-9999.0,ENE,21.9,-,N/A,,Clear,70,2012-10-08 07:30:00
10:00 AM,62.6,41.0,45,30.09,-9999.0,ENE,20.7,-,N/A,,Clear,70,2012-10-08 08:00:00
10:30 AM,62.6,39.2,42,30.09,-9999.0,East,19.6,-,N/A,,Clear,80,2012-10-08 08:30:00
11:00 AM,64,38,27,30.10,31,ENE,20.1,,,,Scattered Clouds,70,2012-10-08 09:00:00
11:00 AM,64.4,39.2,40,30.09,-9999.0,ENE,20.7,-,N/A,,Clear,70,2012-10-08 09:00:00
11:30 AM,64.4,41.0,42,30.09,-9999.0,ENE,19.6,-,N/A,,Clear,60,2012-10-08 09:30:00
12:00 PM,64.4,41.0,42,30.09,-9999.0,ENE,20.7,-,N/A,,Clear,70,2012-10-08 10:00:00
12:30 PM,66.2,39.2,37,30.09,-9999.0,ENE,16.1,-,N/A,,Clear,70,2012-10-08 10:30:00
1:00 PM,66.2,37.4,35,30.09,-9999.0,ENE,12.7,-,N/A,,Clear,70,2012-10-08 11:00:00
1:30 PM,66.2,35.6,32,30.09,-9999.0,ENE,11.5,-,N/A,,Clear,70,2012-10-08 11:30:00
2:00 PM,68.0,37.4,33,30.06,-9999.0,East,8.1,-,N/A,,Clear,90,2012-10-08 12:00:00
2:30 PM,68.0,37.4,33,30.06,-9999.0,East,8.1,-,N/A,,Clear,90,2012-10-08 12:30:00
3:00 PM,68.0,39.2,35,30.06,-9999.0,ESE,6.9,-,N/A,,Clear,110,2012-10-08 13:00:00
3:30 PM,68.0,39.2,35,30.04,-9999.0,East,6.9,-,N/A,,Clear,90,2012-10-08 13:30:00
4:00 PM,68.0,37.4,33,30.04,-9999.0,East,5.8,-,N/A,,Clear,100,2012-10-08 14:00:00
4:30 PM,68.0,39.2,35,30.04,-9999.0,East,5.8,-,N/A,,Clear,100,2012-10-08 14:30:00
5:00 PM,67,40,25,30.04,31,East,6.7,,,,Clear,90,2012-10-08 15:00:00
5:00 PM,66.2,39.2,37,30.04,-9999.0,East,5.8,-,N/A,,Clear,90,2012-10-08 15:00:00
5:30 PM,66.2,39.2,37,30.04,-9999.0,East,4.6,-,N/A,,Clear,100,2012-10-08 15:30:00
6:00 PM,66.2,42.8,43,30.04,-9999.0,Variable,1.2,-,N/A,,Clear,0,2012-10-08 16:00:00
6:30 PM,60.8,44.6,55,30.04,-9999.0,West,4.6,-,N/A,,Clear,260,2012-10-08 16:30:00
7:00 PM,57.2,44.6,63,30.04,-9999.0,Variable,1.2,-,N/A,,Clear,0,2012-10-08 17:00:00
7:30 PM,57.2,44.6,63,30.04,-9999.0,Variable,2.3,-,N/A,,Clear,0,2012-10-08 17:30:00
8:00 PM,56,47,62,30.05,25,NNE,2.2,,,,Partly Cloudy,30,2012-10-08 18:00:00
8:00 PM,55.4,46.4,72,30.04,-9999.0,Variable,2.3,-,N/A,,Clear,0,2012-10-08 18:00:00
8:30 PM,57.2,46.4,67,30.01,-9999.0,Variable,1.2,-,N/A,,Clear,0,2012-10-08 18:30:00
9:00 PM,57.2,46.4,67,30.04,-9999.0,Variable,2.3,-,N/A,,Clear,0,2012-10-08 19:00:00
9:30 PM,55.4,46.4,72,30.01,-9999.0,East,4.6,-,N/A,,Clear,80,2012-10-08 19:30:00
10:00 PM,57.2,46.4,67,30.01,-9999.0,ENE,4.6,-,N/A,,Clear,60,2012-10-08 20:00:00
10:30 PM,57.2,46.4,67,30.01,6.2,ENE,4.6,-,N/A,,Partly Cloudy,60,2012-10-08 20:30:00
11:00 PM,59,46,52,30.03,19,NE,4.5,,,,Partly Cloudy,40,2012-10-08 21:00:00
11:00 PM,59.0,46.4,63,30.01,6.2,NE,4.6,-,N/A,,Scattered Clouds,40,2012-10-08 21:00:00
11:30 PM,59.0,44.6,59,30.01,6.2,NE,4.6,-,N/A,,Mostly Cloudy,50,2012-10-08 21:30:00